Regional Weather Roundup
Issued by NWS

Home | Current Version | Previous Version | Graphics & Text | Print | Product List | Glossary On
Versions: 1 2 3 4 5 6 7 8 9 10 11 12 13 14 15 16 17 18 19 20 21 22 23 24 25 26 27 28 29 30 31 32 33 34 35 36 37 38 39 40 41 42 43 44 45 46 47 48 49 50
000
ASUS43 KLMK 261910
RWRKY
KENTUCKY REGIONAL WEATHER ROUNDUP
NATIONAL WEATHER SERVICE LOUISVILLE KY
200 PM EST THU FEB 26 2015

NOTE "FAIR" INDICATES FEW OR NO CLOUDS BELOW 12,000 FEET
WITH NO SIGNIFICANT WEATHER AND/OR OBSTRUCTIONS TO VISIBILITY.

KYZ001>023-026-027-061>063-070>075-262000-
WESTERN AND SOUTH CENTRAL KENTUCKY

CITY           SKY/WX    TMP DP  RH WIND       PRES   REMARKS
PADUCAH        CLOUDY    31  24  75 N12       30.15R WCI  22
HENDERSON      CLOUDY    28  21  74 NW10      30.13R WCI  19
OWENSBORO      CLOUDY    32  22  67 NW14      30.10S WCI  22
HOPKINSVILLE   CLOUDY    35  23  62 NW8       30.08R WCI  28
BOWLING GREEN  MOSUNNY   41  19  41 N7        30.04S
GLASGOW        MOSUNNY   40  21  46 NE3       30.02S
$$

KYZ024-025-028>034-038-045-046-053-262000-
NORTH CENTRAL KENTUCKY

CITY           SKY/WX    TMP DP  RH WIND       PRES   REMARKS
LOUISVILLE/SDF PTSUNNY   32  19  58 NW12G17   30.07S WCI  23
LOUISVILLE/LOU MOSUNNY   32  19  58 NW12      30.07S WCI  23
FORT KNOX      PTSUNNY   34  19  55 NW10      30.03S WCI  26
$$

KYZ035>037-039>044-047>052-055>060-089>105-262000-
NORTHEAST KENTUCKY

CITY           SKY/WX    TMP DP  RH WIND       PRES   REMARKS
LEXINGTON      SUNNY     32  18  56 N9        30.01F WCI  24
COVINGTON      PTSUNNY   24  13  62 NW12      30.06S WCI  13
FRANKFORT      MOSUNNY   33  14  45 NW9       30.01F WCI  25
$$

KYZ054-064>069-076>088-106>120-262000-
SOUTHEAST KENTUCKY

CITY           SKY/WX    TMP DP  RH WIND       PRES   REMARKS
JACKSON        CLOUDY    38  19  46 VRB3      29.93F
LONDON         MOSUNNY   39  18  42 N9        29.95F WCI  33
SOMERSET       MOSUNNY   36  21  55 W6        30.00S WCI  31
MIDDLESBORO    CLOUDY    35  26  68 NE6       29.97S WCI  30
MONTICELLO     PTCLDY    42  23  47 CALM      30.01F
$$




USA.gov is the U.S. government's official web portal to all federal, state and local government web resources and services.